Location: Boneville
(33.4331°N, 82.4399°W)
Time: 22:16:52
(UTC+00:00)

Hubble Space Telescope - Pass Details

Date: 29 September 2024
Orbit: 504 x 508 km, 28.5° (Epoch: 06 October)

Event Time Altitude Azimuth Distance (km) Brightness Sun altitude
Exits shadow 10:16:08 21° 225° (SW) 1,178 2.1 -14.8°
Maximum altitude 10:18:11 35° 173° (S) 819 1.7 -14.3°
Drops below altitude 10° 10:21:46 10° 106° (ESE) 1,698 4.5 -13.6°
Sets 10:24:07 0° 97° (E) 2,582 6.0 -13.1°
